www.pogodaiklimat.ru

Погода и климат >> Архив погоды >> Россия >> Коми >> Усть-Цильма


АРХИВ ПОГОДЫ в Усть-Цильме

Время (UTC), дата Ветер
(напр.,м/с)
 
Видим.   Явления Облачность Т
(С)
Тd
(С)
f
(%)
Тe
(С)
Тes
(С)
Комфортность P
(гПа)
Po
(гПа)
Тmin
(С)
Tmax
(С)
R
(мм)
R24
(мм)
S
(см)
21 16.05 10 км 9/0
[Ac As]
+1.9 +0.8 92 1016.3 1006.4
00 17.05 15 км 9/3 1000 м
[Sc Ac trans Ci fib]
+1.0 -0.1 92 1014.2 1004.2
03 17.05 З 2 11 км в посл. час ливневой снег 10/10 210 м
[Cb cap]
+1.8 +1.0 94 -2 -2 1011.6 1001.8 +0.5 0.3
06 17.05 С 3 24 км в посл. час ливневой дождь 9/4 600 м
[Cb cap Ac trans]
+4.6 +0.7 76 +1 +3 1009.8 1000.0
09 17.05 С 5-10
{11}
5000 м в посл. час ливневой снег 8/3 600 м
[Cb cap Ac trans Ci fib]
+4.7 -0.3 70 0 +3 1009.6 999.8
12 17.05 С 4-10
{11}
20 км в посл. час ливневой снег 9/4 600 м
[Cb cap]
+1.8 +1.0 94 -3 -2 1010.2 1000.4
15 17.05 С 5
{11}
21 км в посл. час ливневой снег 10/3 600 м
[Cb cap Ac und]
+1.8 +0.5 91 -4 -4 1010.6 1000.6 +6.0 1
18 17.05 СЗ 2 19 км {ливн. осадки} 10/3 600 м
[Cb cap Ac und]
+1.4 +0.6 94 -2 -2 1009.7 999.7
21 17.05 СЗ 3 10 км {ливн. осадки} 10/8 330 м
[Cb cap Ac und]
+0.8 0.0 94 -4 -4 1008.5 998.5
00 18.05 СЗ 2 3000 м снег {ливн. осадки} 10/9 210 м
[Frnb As op]
-0.1 -0.4 98 -4 -4 1007.5 997.5
03 18.05 С 3 10 км слаб. снег 9/8 500 м
[Sc As op]
+0.3 -0.5 94 -4 -4 1006.5 996.5 -0.4 0.3
06 18.05 С 5 12 км {ливн. осадки, снег} 10/8 570 м
[Cb cap Ac und]
+2.1 -0.1 85 -3 -3 1005.8 996.0
09 18.05 С 6-13
{14}
15 км в посл. час ливневой снег 9/6 630 м
[Cb cap Ac As]
+4.0 +1.2 82 -1 -1 1006.0 996.2
12 18.05 С 5
{14}
3000 м слаб. ливневой снег 10/8 300 м
[Cb cap Ac und]
+1.7 +1.2 96 -4 -4 1006.4 996.4
15 18.05 С 5-10
{12}
3000 м слаб. ливневой снег 10/8 300 м
[Cb cap Ac und]
+1.4 +0.9 96 -5 -4 1006.8 996.8 +5.1 2
18 18.05 С 8-14
{14}
6000 м слаб. ливневой дождь 10/8 400 м
[Cb cap Ac und]
+1.2 +0.7 96 -6 -6 1006.5 996.5
21 18.05 С 6-12
{15}
4600 м дымка {ливн. осадки} 10/6 300 м
[Cb cap Ac und]
+0.6 -0.2 94 -6 -6 1007.2 997.2
00 19.05 С 5-10
{12}
3200 м дымка {ливн. осадки} 10/10 210 м
[St]
+0.6 0.0 96 -6 -6 1008.6 998.6
03 19.05 С 6-10
{10}
5000 м дымка 10/10 150 м
[St]
+1.2 +0.7 96 -5 -5 1010.2 1000.2 +0.5 2
06 19.05 С 6-11
{11}
18 км 9/6 330 м
[Sc Ac trans]
+3.8 +1.8 87 -2 -1 1011.5 1001.7
09 19.05 С 7-11
{13}
24 км 3/0
[Ac trans]
+7.6 +1.5 65 +3 +6 1012.5 1002.9
12 19.05 С 8-12
{13}
25 км 3/3 1000 м
[Cu med, cong]
+9.1 -0.2 52 +5 +6 1013.8 1004.2
15 19.05 С 6-12
{13}
24 км 5/3 1000 м
[Cu med, cong Ac trans Ci fib]
+9.0 -2.1 46 +6 +6 1014.2 1004.6 +9.6
18 19.05 С 6
{12}
20 км ясно +5.5 -1.2 62 +1 +1 1015.2 1005.3
21 19.05 С 4
{10}
19 км ясно +2.0 -0.8 82 -3 -3 1015.9 1006.0
00 20.05 С 5
{10}
21 км ясно +0.1 -1.3 90 -6 -6 1016.9 1006.8
03 20.05 С 6-11
{11}
24 км 3/3 1500 м
[Cu hum]
+1.0 -3.2 74 -5 -4 1017.8 1007.7 -0.3
06 20.05 СЗ 7-12
{12}
20 км 1/1 1500 м
[Cu hum]
+2.8 -4.5 59 -3 -1 1018.3 1008.4
09 20.05 С 7-12
{14}
22 км 1/0
[Ci fib]
+5.4 -5.8 44 +1 +4 1018.6 1008.7
12 20.05 С 7-12
{14}
24 км 1/0
[Ci fib]
+7.2 -5.4 40 +3 +5 1018.7 1009.0
15 20.05 С 6-10
{12}
22 км ясно +6.1 -5.9 42 +2 +3 1018.7 1008.8 +7.6
18 20.05 С 4
{12}
20 км ясно +2.5 -6.9 50 -2 -2 1018.6 1008.7
21 20.05 С 2 15 км 1/0
[Ci fib]
-1.0 -4.2 79 -5 -5 1019.0 1008.9
00 21.05 С 4 20 км 3/0
[]
-1.4 -2.9 90 -7 -7 1018.7 1008.6
03 21.05 СВ 5 23 км 9/4 300 м
[Sc Ac trans Ci fib]
-0.6 -3.4 81 -7 -6 1019.3 1009.2 -2.3
06 21.05 С 5
{10}
25 км 6/0
[Ci fib]
+1.9 -3.5 67 -3 +1 1019.9 1009.8
09 21.05 СЗ 4 26 км 6/0
[Ci fib]
+5.8 -2.5 55 +2 +9 1018.9 1009.0
12 21.05 С 3 24 км 6/0
[Ci fib]
+7.9 -3.8 43 +6 +11 1018.1 1008.4
15 21.05 С 4 23 км 3/0
[Ci fib]
+7.8 -2.8 47 +5 +6 1017.1 1007.4 +9.0
18 21.05 С 3 19 км 8/0
[Ac trans Ci sp]
+3.9 -4.8 53 +1 +1 1016.8 1006.9
21 21.05 СВ 2 12 км 4/0
[Ac trans Ci fib]
+0.6 -3.3 75 -3 -3 1016.4 1006.3
00 22.05 СВ 4 18 км 5/0
[Ac trans]
-0.3 -3.4 80 -6 -6 1016.2 1006.1
03 22.05 СВ 1 22 км 9/3 1000 м
[Sc Ac trans]
+0.3 -2.7 80 -2 -0 1015.5 1005.4 -0.6
06 22.05 С 1 26 км 10/6 1300 м
[Sc Ac und]
+2.5 -1.4 75 +1 +2 1014.1 1004.3
09 22.05 30 км 8/3 1500 м
[Cu hum Ac trans Ci fib]
+5.9 -2.4 55 1012.3 1002.5
12 22.05 ЮЗ 2 24 км 10/3 1000 м
[Cb cap Ac und]
+6.9 -1.3 56 +5 +7 1009.7 1000.1
15 22.05 ЮВ 2 6000 м слаб. ливневой дождь 10/6 800 м
[Cb cap Ac und]
+4.2 +3.5 95 +1 +1 1008.0 998.2 +7.7 1
18 22.05 ЮВ 4 10 км слаб. ливневой дождь 10/8 330 м
[Cb cap Ac und]
+2.7 +2.2 97 -2 -2 1006.0 996.2
21 22.05 СЗ 3 15 км {ливн. осадки} 10/10 300 м
[Sc]
+1.7 +0.9 94 -3 -3 1004.7 994.8
00 23.05 С 3 5000 м слаб. снег 10/9 210 м
[Frnb As op]
+0.2 -0.6 94 -5 -5 1003.2 993.3
03 23.05 СВ 5
{10}
3000 м снег 10/9 240 м
[Frnb As op]
-0.2 -0.8 96 -7 -7 1003.0 993.1 -0.2 3
06 23.05 С 7-11
{11}
20 км в посл. час ливневой снег 10/8 660 м
[Cb cap Ac und]
+1.6 -3.2 70 -5 -5 1004.4 994.5
09 23.05 С 6-10
{11}
21 км {ливн. осадки} 9/6 630 м
[Cb cap Ac trans]
+2.2 -2.4 72 -4 -3 1005.5 995.7
12 23.05 С 4
{10}
25 км слаб. ливневой снег 8/6 900 м
[Cb cap Ac trans]
+4.1 -5.3 50 0 +2 1005.5 995.7
15 23.05 С 4
{10}
20 км {ливн. осадки} 8/4 600 м
[Cb cap Ac trans]
+1.8 -2.6 73 -3 -3 1005.8 995.8 +4.6 0.4
18 23.05 С 2 23 км в посл. час ливневой снег 8/3 600 м
[Cb cap Ac trans]
0.0 -2.1 86 -4 -4 1006.2 996.2

 

Местоположение метеостанции Усть-Цильма (Коми, Россия): широта 65.43 долгота 52.27 высота над уровнем моря 79 м.

В архиве по умолчанию представлена погода в Усть-Цильме за последнюю неделю. Архивные данные за месяц целиком и за предыдущие месяцы, начиная с января 2011 года, Вы можете получить, выбрав интересующий диапазон дат из раскрывающегося списка и нажав кнопку "Ввод!".


*Определитесь, кто Вы:
робот инопланетянин человек

Внимание! Время в таблицах - всемирное. Для получения местного времени необходимо прибавить поправку, которая равна 3 ч.

Смотрите также архив погоды в соседних городах и на ближайших метеорологических станциях:

Погода в Ижме (Коми, Россия) (91 км)
Погода в Окуневом Носу (Коми, Россия) (92 км)
Погода в Мутном Материке (Коми, Россия) (145 км)
Погода в Кедва-Воме (Коми, Россия) (148 км)
Погода в Ираеле (Коми, Россия) (179 км)
Погода в Коткино (Ненецкий АО, Россия) (185 км)
Погода в Усть-Усе (Коми, Россия) (221 км)
Погода в Ухте (Коми, Россия) (222 км)
Погода в Печоре (Коми, Россия) (227 км)
Погода в Койнасе (Архангельская область, Россия) (229 км)

Пояснения к столбцам:

Ветер - указаны скорость ветра в м/с - средняя за 10 мин, порывы в срок и между сроками (в фигурных скобках) и направление, откуда дует ветер: С - северный, СВ - северо-восточный, В - восточный, ЮВ - юго-восточный, Ю - южный, ЮЗ - юго-западный, З - западный, СЗ - северо-западный.
Видимость - горизонтальная дальность видимости в метрах или километрах. При видимости от 1 до 10 км при отсутствии осадков обычно наблюдается дымка, при ухудшении видимости до 1 км и менее - туман. В сухую погоду видимость может ухудшаться дымом, пылью или мглою.
Явления - указаны атмосферные явления, наблюдавшиеся в срок или в последний час перед сроком; фигурными скобками обозначены явления, наблюдавшиеся между сроками (за 1-3 часа до срока); квадратными скобками обозначены град или гололедные отложения с указанием их диаметра в мм.
Облачность - указаны через наклонную черту общая и нижняя облачность в баллах и высота нижней границы облаков в метрах; квадратными скобками обозначены формы облаков: Ci - перистые, Cs - перисто-слоистые, Cc - перисто-кучевые, Ac - высококучевые, As - высокослоистые, Sc - слоисто-кучевые, Ns - слоисто-дождевые, Cu - кучевые, Cb - кучево-дождевые. Подробнее классификацию облаков см. в Атласе облаков (PDF).
T - Температура воздуха - температура, измеренная на высоте 2 м над землей.
Td - Температура точки росы - температура, при понижении до которой содержащийся в воздухе водяной пар достигнет насыщения.
f - Относительная влажность воздуха - влажноcть воздуха, измеренная на высоте 2 м над землей.
Te - Эффективная температура - температура, которую ощущает одетый по сезону человек в тени. Характеристика душности погоды. При расчете учитывается влияние влажности воздуха и скорости ветра на теплоощущения человека.
Tes - Эффективная температура на солнце - температура, которую ощущает человек, с поправкой на солнечный нагрев. Характеристика знойности погоды. Зависит от высоты солнца над горизонтом, облачности и скорости ветра. Ночью, в пасмурную погоду, а также при ветре 12 м/с и более поправка равна нулю.
P - Атмосферное давление - приведенное к уровню моря атмосферное давление.
Po - Атмосферное давление - измеренное на уровне метеостанции атмосферное давление.
Tmin - Минимальная температура - минимум температуры воздуха на высоте 2 м над землей.
Tmax - Максимальная температура - максимум температуры воздуха на высоте 2 м над землей.
R - Количество осадков - Количество выпавших осадков за период времени, мм. При наведении курсора мыши на число - период времени, за который выпало указанное количество осадков.
R24 - Количество осадков - Количество выпавших осадков за 24 часа, мм.
S - Снежный покров - Высота снежного покрова, см. При наведении курсора мыши на число - состояние снежного покрова и степень покрытия местности в баллах.